Change the Weather History Date:

Thursday, December 26, 2013

  Actual Average (KLJF) Record (KLJF)
Temperature  
Mean Temperature 12 °F -  
Max Temperature 24 °F 20 °F 48 °F (2011)
Min Temperature 1 °F 2 °F -24 °F (1990)
Degree Days  
Heating Degree Days 52    
Moisture  
Dew Point 12 °F    
Average Humidity 88    
Maximum Humidity 95    
Minimum Humidity 82    
Precipitation  
Precipitation 0.00 in - - ()
Sea Level Pressure  
Sea Level Pressure 30.07 in    
Wind  
Wind Speed 1 mph (East)    
Max Wind Speed 6 mph    
Max Gust Speed -    
Visibility 7 miles    
Events Fog , Snow    
Averages and records for this station are not official NWS values.
T = Trace of Precipitation, MM = Missing Value Source: NWS Daily Summary

Daily Weather History Graph

Daily Weather History Graph

Search for Another Location

Airport or City:

Trip Planner

Search our weather history database for the weather conditions in past years. The results will help you decide how hot, cold, wet, or windy it might be!

Date:

Astronomy

Dec. 26, 2013 Rise Set
Actual Time 7:57 AM CST 4:41 PM CST
Civil Twilight 7:23 AM CST 5:16 PM CST
Nautical Twilight 6:46 AM CST 5:53 PM CST
Astronomical Twilight 6:10 AM CST 6:29 PM CST
Moon 1:14 AM CST (12/26) 12:29 PM CST (12/26)
Length of Visible Light 9h 52m
Length of Day
8h 44m
Last Quarter, 38% of the Moon is Illuminated
Dec 26
Last Quarter
Jan 1
New
Jan 7
First Quarter
Jan 15
Full
Jan 23
Last Quarter

Hourly Weather History & Observations

Time (CST) Temp. Windchill Dew Point Humidity Pressure Visibility Wind Dir Wind Speed Gust Speed Precip Events Conditions
12:13 AM 16.7 °F - 12.2 °F 82% 30.06 in 10.0 mi Calm Calm - N/A   Overcast
12:33 AM 16.5 °F 11.0 °F 12.4 °F 84% 30.06 in 10.0 mi SSE 3.5 mph - N/A   Overcast
12:52 AM 15.8 °F 7.2 °F 12.0 °F 85% 30.05 in 10.0 mi SSE 5.8 mph - N/A   Overcast
1:13 AM 15.8 °F - 12.2 °F 86% 30.05 in 10.0 mi Calm Calm - N/A   Overcast
1:32 AM 15.8 °F - 12.2 °F 86% 30.05 in 10.0 mi Calm Calm - N/A   Overcast
1:53 AM 15.8 °F - 12.0 °F 85% 30.05 in 10.0 mi Calm Calm - N/A   Overcast
2:12 AM 15.6 °F - 12.0 °F 86% 30.05 in 10.0 mi Calm Calm - N/A   Overcast
2:33 AM 14.9 °F 9.2 °F 11.8 °F 88% 30.04 in 10.0 mi SSE 3.5 mph - N/A   Mostly Cloudy
2:52 AM 14.7 °F - 11.5 °F 87% 30.04 in 10.0 mi Calm Calm - N/A   Scattered Clouds
3:12 AM 13.8 °F - 11.1 °F 89% 30.04 in 10.0 mi Calm Calm - N/A   Clear
3:33 AM 12.7 °F - 10.2 °F 90% 30.04 in 10.0 mi Calm Calm - N/A   Clear
3:52 AM 10.2 °F - 8.1 °F 91% 30.04 in 10.0 mi Calm Calm - N/A   Clear
4:13 AM 8.8 °F - 6.6 °F 91% 30.03 in 10.0 mi Calm Calm - N/A   Clear
4:32 AM 6.6 °F - 4.1 °F 89% 30.03 in 10.0 mi Calm Calm - N/A   Clear
4:53 AM 9.0 °F - 6.4 °F 89% 30.02 in 10.0 mi Calm Calm - N/A   Clear
5:13 AM 6.1 °F - 3.2 °F 88% 30.02 in 10.0 mi Calm Calm - N/A   Scattered Clouds
5:33 AM 5.7 °F - 3.0 °F 89% 30.03 in 10.0 mi Calm Calm - N/A   Mostly Cloudy
5:53 AM 5.9 °F - 3.2 °F 89% 30.02 in 10.0 mi Calm Calm - N/A   Scattered Clouds
6:13 AM 5.4 °F - 2.5 °F 88% 30.02 in 10.0 mi Calm Calm - N/A   Scattered Clouds
6:32 AM 5.7 °F - 3.0 °F 89% 30.02 in 10.0 mi Calm Calm - N/A   Mostly Cloudy
6:52 AM 7.3 °F - 4.8 °F 89% 30.03 in 10.0 mi Calm Calm - N/A   Mostly Cloudy
7:13 AM 8.2 °F - 5.7 °F 89% 30.03 in 10.0 mi Calm Calm - N/A   Overcast
7:32 AM 9.3 °F - 6.8 °F 89% 30.03 in 10.0 mi Calm Calm - N/A   Overcast
7:53 AM 10.8 °F - 8.4 °F 90% 30.04 in 7.0 mi Calm Calm - N/A Snow Light Snow
8:13 AM 12.6 °F - 10.6 °F 92% 30.05 in 4.0 mi Calm Calm - N/A Snow Light Snow
8:33 AM 13.6 °F - 11.7 °F 92% 30.05 in 3.0 mi Calm Calm - N/A Snow Light Snow
8:53 AM 14.7 °F - 12.9 °F 93% 30.06 in 1.8 mi Calm Calm - N/A Snow Light Snow
9:13 AM 15.3 °F - 13.5 °F 93% 30.06 in 1.8 mi Calm Calm - N/A Snow Light Snow
9:32 AM 16.2 °F - 14.4 °F 93% 30.05 in 1.8 mi Calm Calm - N/A Snow Light Snow
9:53 AM 16.7 °F - 14.9 °F 93% 30.06 in 4.0 mi Calm Calm - N/A Snow Light Snow
10:13 AM 17.6 °F - 15.8 °F 93% 30.06 in 2.0 mi Calm Calm - N/A Snow Light Snow
10:33 AM 18.3 °F - 16.3 °F 92% 30.06 in 4.0 mi Calm Calm - N/A Snow Light Snow
10:52 AM 19.4 °F - 16.9 °F 90% 30.07 in 1.8 mi Calm Calm - N/A Snow Light Snow
11:12 AM 19.6 °F - 16.9 °F 89% 30.06 in 2.5 mi Calm Calm - N/A Snow Light Snow
11:33 AM 21.0 °F - 18.3 °F 89% 30.05 in 4.0 mi Calm Calm - N/A Snow Light Snow
11:52 AM 22.1 °F - 18.9 °F 87% 30.04 in 7.0 mi Calm Calm - N/A Snow Light Snow
12:13 PM 23.0 °F - 19.4 °F 86% 30.04 in 10.0 mi Calm Calm - N/A   Overcast
12:33 PM 23.2 °F - 19.4 °F 85% 30.04 in 10.0 mi Calm Calm - N/A   Overcast
12:53 PM 24.6 °F - 20.3 °F 84% 30.03 in 10.0 mi Calm Calm - N/A   Overcast
1:12 PM 24.4 °F 20.1 °F 20.3 °F 84% 30.03 in 10.0 mi ENE 3.5 mph - N/A   Overcast
1:33 PM 23.9 °F 18.0 °F 20.1 °F 85% 30.03 in 10.0 mi ENE 4.6 mph - N/A   Overcast
1:52 PM 23.9 °F 19.5 °F 19.9 °F 85% 30.03 in 10.0 mi ENE 3.5 mph - N/A   Overcast
2:13 PM 23.7 °F 16.6 °F 19.8 °F 85% 30.02 in 10.0 mi NE 5.8 mph - N/A   Overcast
2:32 PM 23.9 °F 19.5 °F 19.9 °F 85% 30.03 in 10.0 mi East 3.5 mph - N/A   Overcast
2:53 PM 24.4 °F 20.1 °F 20.3 °F 84% 30.03 in 10.0 mi East 3.5 mph - N/A   Overcast
3:13 PM 24.6 °F 20.3 °F 20.8 °F 86% 30.04 in 10.0 mi East 3.5 mph - N/A   Overcast
3:32 PM 24.4 °F - 20.8 °F 86% 30.04 in 10.0 mi Calm Calm - N/A   Overcast
3:52 PM 24.3 °F - 21.0 °F 87% 30.05 in 10.0 mi Calm Calm - N/A   Overcast
4:13 PM 23.7 °F 17.8 °F 20.1 °F 86% 30.06 in 10.0 mi ENE 4.6 mph - N/A   Overcast
4:33 PM 23.0 °F - 19.4 °F 86% 30.08 in 10.0 mi Calm Calm - N/A   Overcast
4:53 PM 22.8 °F 18.2 °F 19.2 °F 86% 30.09 in 10.0 mi East 3.5 mph - N/A   Overcast
5:13 PM 22.6 °F 18.0 °F 19.2 °F 87% 30.09 in 10.0 mi East 3.5 mph - N/A   Overcast
5:32 PM 22.6 °F - 19.0 °F 86% 30.09 in 10.0 mi Calm Calm - N/A   Overcast
5:53 PM 22.3 °F - 19.0 °F 87% 30.10 in 10.0 mi Calm Calm - N/A   Overcast
6:12 PM 20.7 °F - 17.6 °F 88% 30.10 in 10.0 mi Calm Calm - N/A   Scattered Clouds
6:33 PM 19.2 °F - 16.5 °F 89% 30.11 in 10.0 mi Calm Calm - N/A   Mostly Cloudy
6:52 PM 18.1 °F - 16.2 °F 92% 30.11 in 7.0 mi Calm Calm - N/A   Mostly Cloudy
7:13 PM 17.8 °F - 16.5 °F 95% 30.12 in 7.0 mi Calm Calm - N/A   Scattered Clouds
7:32 PM 14.2 °F - 12.6 °F 93% 30.13 in 4.0 mi Calm Calm - N/A   Clear
7:52 PM 11.8 °F - 9.9 °F 92% 30.13 in 3.0 mi Calm Calm - N/A   Clear
8:13 PM 8.2 °F - 5.5 °F 89% 30.13 in 0.5 mi Calm Calm - N/A Fog Light Freezing Fog
8:33 PM 7.0 °F - 4.1 °F 88% 30.13 in 0.2 mi Calm Calm - N/A Fog Light Freezing Fog
8:52 PM 5.9 °F - 3.2 °F 89% 30.13 in 0.2 mi Calm Calm - N/A Fog Light Freezing Fog
9:13 PM 4.5 °F - 1.2 °F 86% 30.13 in 0.2 mi Calm Calm - N/A Fog Light Freezing Fog
9:33 PM 2.8 °F - -0.6 °F 86% 30.13 in 0.2 mi Calm Calm - N/A Fog Light Freezing Fog
9:52 PM 2.5 °F - -0.9 °F 86% 30.13 in 0.2 mi Calm Calm - N/A Fog Light Freezing Fog
10:12 PM 1.8 °F - -1.1 °F 88% 30.13 in 0.2 mi Calm Calm - N/A Fog Light Freezing Fog
10:33 PM 6.3 °F - 3.7 °F 89% 30.13 in 5.0 mi Calm Calm - N/A   Overcast
10:53 PM 9.0 °F - 6.8 °F 91% 30.13 in 7.0 mi Calm Calm - N/A   Overcast
11:13 PM 12.2 °F - 10.2 °F 92% 30.13 in 5.0 mi Calm Calm - N/A   Overcast
11:33 PM 14.7 °F - 13.1 °F 93% 30.13 in 5.0 mi Calm Calm - N/A   Overcast
11:52 PM 17.6 °F - 16.3 °F 95% 30.13 in 5.0 mi Calm Calm - N/A   Overcast